Temp
24 24 23 23 24 24 23 23 23 23 23 23 23 23 23 23 23 23 23 23 23 23 23 23 23 23 22 22 22 22 22 23 23 23 23 22 22 22 22 22 21 21 22 21 21 20 20 21 21 21 21 20 21 22 21 21 22 22 21 21 21 22 22 22 21 22 23 24 24 24 24 25 26 26 27 28 28 28 27 27 27 28 28 27 27
24 23 23 23 24 23 23 23 23 22 22 22 22 22 22 22 22 22 22 22 22 22 22 22 22 22 22 22 22 22 22 23 23 23 23 23 23 22 22 22 22 22 22 22 22 21 20 20 20 21 21 20 20 21 22 22 22 21 21 21 21 22 22 22 22 22 22 23 24 23 24 24 24 24 25 26 26 27 27 27 28 28 28 28 27
24 23 23 23 23 23 23 23 22 22 22 22 22 22 22 22 22 22 22 22 22 22 22 22 22 22 22 22 22 23 23 23 22 22 23 23 23 23 22 22 22 22 22 21 21 21 20 20 20 20 21 21 21 21 21 21 21 21 21 20 21 21 22 22 22 22 22 23 24 23 23 24 24 24 25 25 24 25 25 26 27 28 28 28 27
23 23 23 23 23 23 23 22 22 22 22 22 22 22 22 22 22 22 21 21 21 21 21 21 22 22 22 22 22 23 23 23 22 22 22 22 22 23 23 22 22 22 21 21 21 21 21 20 20 20 20 21 21 21 21 21 21 20 20 20 20 21 21 21 21 21 21 21 23 24 24 24 24 24 25 26 25 23 23 23 25 27 28 27 28
23 22 23 23 23 22 22 22 22 22 22 22 22 21 21 21 21 21 21 21 21 21 21 21 21 21 22 22 22 22 22 22 22 22 22 22 22 22 22 22 22 22 22 22 22 21 21 21 21 20 20 21 21 21 21 21 20 20 20 20 20 21 21 21 21 21 20 20 21 22 22 21 22 23 24 25 25 24 23 23 24 26 26 26 27
22 22 22 23 22 22 22 22 22 22 21 21 21 21 21 21 21 21 21 21 20 21 21 21 21 21 21 22 22 22 22 22 22 22 22 22 22 22 21 21 22 22 22 22 22 22 21 21 22 21 20 21 21 21 20 20 20 20 20 20 20 20 20 20 21 21 21 21 20 21 22 21 22 22 23 24 24 23 24 24 25 25 25 24 25
22 22 22 22 22 22 21 21 21 21 21 21 20 20 20 20 20 20 20 20 20 20 20 20 21 21 21 21 21 21 21 21 22 22 21 21 21 21 21 21 21 21 22 22 22 22 22 22 21 21 21 21 21 21 21 20 20 21 21 21 20 20 20 20 21 21 21 21 20 21 22 22 22 22 23 24 23 22 23 23 24 25 25 24 23
21 21 21 21 21 21 21 20 21 21 20 20 20 20 20 20 20 20 20 20 20 20 20 20 20 21 21 21 21 21 21 21 21 21 20 20 20 20 20 20 20 20 21 21 21 22 22 22 22 21 21 21 21 21 20 20 20 21 22 21 21 20 20 20 20 20 20 20 20 21 21 22 22 22 23 23 22 22 23 23 23 23 24 24 24
21 21 21 21 21 20 20 20 20 20 20 20 20 20 20 19 20 20 20 20 20 20 20 20 20 20 20 21 21 21 21 21 21 20 20 20 20 20 20 19 20 20 20 20 21 21 22 22 22 22 21 21 21 21 21 20 21 21 21 21 21 20 20 20 20 20 20 20 20 21 21 22 22 22 22 22 23 23 23 22 22 22 22 23 24
21 21 20 20 20 20 20 20 20 19 19 19 19 19 19 19 19 19 19 20 20 20 20 20 20 20 20 20 20 20 21 20 20 20 20 20 19 19 19 19 19 19 20 20 20 21 22 22 23 23 22 21 21 21 21 21 21 21 21 21 21 20 20 20 20 20 20 20 20 21 21 21 22 22 22 23 23 24 23 22 22 21 21 22 23
20 20 20 20 19 19 19 19 19 19 19 19 19 19 19 19 19 19 19 19 19 19 19 20 20 20 20 20 20 20 20 19 19 19 19 19 19 18 18 18 19 19 19 20 20 21 21 22 22 22 22 22 22 21 20 20 21 21 21 21 21 21 20 20 20 20 20 20 20 21 21 21 22 22 23 23 23 23 23 23 22 21 21 21 21
20 19 19 19 18 18 18 18 18 18 18 18 18 18 18 18 18 18 18 19 19 19 19 19 19 19 20 19 19 20 19 18 18 18 18 18 18 18 18 18 18 19 19 19 20 20 20 21 21 22 22 22 22 21 20 20 21 21 21 21 21 21 20 20 20 20 20 20 20 20 21 21 22 22 22 23 23 23 22 22 22 21 21 20 20
19 19 18 18 18 18 17 17 18 18 18 17 18 18 18 18 18 18 18 18 19 19 19 19 19 19 19 19 18 18 17 17 17 17 17 17 17 18 18 18 18 19 19 19 20 20 20 20 21 21 21 21 21 21 21 20 19 19 20 20 20 20 20 20 20 20 20 20 20 20 20 21 21 21 22 22 22 21 21 21 21 21 21 21 21
18 18 18 18 17 17 17 17 17 17 17 17 17 17 18 18 18 18 18 18 18 18 18 19 19 19 19 18 18 18 16 16 16 16 16 16 17 17 18 18 18 19 19 19 19 20 20 20 20 20 20 20 20 20 20 20 20 20 19 19 20 20 20 20 20 20 20 19 19 20 20 20 21 21 21 21 21 20 20 20 21 21 21 21 21
18 18 17 17 17 17 17 17 17 17 17 17 17 17 17 17 17 17 17 18 18 18 18 18 18 18 17 17 17 17 15 15 16 16 16 16 16 17 17 17 18 18 18 18 18 19 19 19 19 19 19 19 19 19 19 19 19 20 20 19 20 20 20 20 20 20 19 19 19 20 20 20 21 21 21 21 20 20 19 20 21 21 21 21 21
17 17 17 17 17 17 17 17 17 17 16 16 17 17 17 17 17 17 17 17 17 17 17 18 17 17 17 16 16 15 15 15 15 15 15 16 16 16 16 16 17 17 17 17 18 18 18 19 19 19 19 19 19 19 19 18 18 19 20 20 20 20 20 20 20 20 20 20 20 20 20 20 20 21 21 20 20 20 20 19 19 20 20 20 20
17 17 17 17 17 17 17 17 16 16 16 16 16 16 16 16 16 16 16 16 16 17 17 17 16 16 16 16 16 15 14 14 14 15 15 15 15 14 14 15 16 15 15 16 17 17 18 18 19 18 18 18 18 19 18 18 18 18 19 19 19 20 20 20 20 20 21 21 20 20 20 20 20 20 20 20 20 20 20 19 19 19 19 19 20
17 17 17 17 17 17 17 17 16 16 16 17 16 16 16 16 16 16 16 16 16 16 16 16 16 16 16 16 15 15 14 14 14 14 14 14 14 13 13 14 14 14 14 14 15 16 16 17 18 18 17 17 18 18 18 18 17 17 18 18 19 20 20 20 19 20 20 20 20 20 20 20 20 20 20 20 20 20 19 19 19 19 19 20 20
17 17 17 17 17 17 17 17 16 16 17 17 16 16 16 16 16 16 15 16 16 16 16 16 16 16 16 16 15 15 14 13 13 13 13 13 12 12 11 12 12 12 12 13 14 15 15 16 18 18 17 17 17 18 17 17 17 17 17 17 18 19 19 19 19 19 19 19 19 19 19 20 20 20 20 20 20 20 19 19 19 19 19 20 20
17 17 17 17 17 17 17 17 16 17 17 17 16 16 16 16 16 15 15 15 16 16 15 15 15 15 15 15 15 15 14 13 13 12 12 12 11 10 10 10 11 10 11 12 13 14 14 15 16 17 17 17 17 17 17 17 17 17 17 17 17 18 18 18 19 19 19 19 19 19 19 20 20 20 20 20 20 20 19 19 19 19 19 20 20
17 16 17 17 17 17 17 16 16 17 17 16 16 16 16 16 15 15 15 15 15 15 15 15 15 15 14 14 14 14 14 13 12 12 11 11 10 9 9 9 9 9 10 11 12 13 13 14 15 16 16 16 16 16 16 17 16 17 17 17 17 17 17 17 18 19 18 19 19 19 19 19 20 20 20 20 20 20 20 20 20 20 19 19 20
17 16 17 17 17 17 17 16 16 17 16 16 16 16 16 15 15 15 15 15 14 14 14 14 14 14 14 14 13 13 12 12 12 11 10 10 9 8 8 9 9 9 10 11 11 12 13 13 14 14 15 15 15 15 16 16 17 17 17 17 17 18 17 17 18 18 18 18 19 19 19 19 20 20 20 20 20 21 21 21 20 20 19 20 20
17 16 17 17 17 17 17 17 16 16 16 16 16 16 15 15 14 14 14 14 14 14 14 13 13 13 13 13 12 12 11 11 11 10 9 9 8 8 8 8 9 9 10 10 11 12 12 13 13 13 14 15 15 16 16 16 16 17 17 17 18 18 17 17 18 17 17 18 18 19 19 20 20 20 20 21 21 21 21 21 21 20 19 20 19
17 17 17 17 17 17 17 17 16 16 16 16 15 15 15 14 14 14 14 14 13 13 13 12 12 12 12 12 11 11 10 10 10 10 9 8 8 8 8 9 9 10 9 10 11 12 12 12 12 13 14 15 15 16 16 16 16 16 16 17 18 18 18 18 18 17 18 18 19 19 20 20 20 20 20 21 21 21 21 21 20 19 20 20 19
17 17 17 17 17 17 17 16 17 16 16 16 15 15 14 14 14 13 13 13 13 13 12 12 12 12 11 11 11 10 10 10 10 9 9 8 8 8 9 9 10 10 10 10 11 11 11 12 13 13 14 15 15 15 15 15 15 15 16 16 17 17 17 17 17 18 18 18 19 19 19 19 19 20 20 20 20 20 20 20 19 20 20 19 19
17 17 17 17 17 17 16 16 17 17 16 16 15 14 14 14 14 13 13 13 12 12 12 12 11 11 11 11 11 10 10 10 9 9 8 8 8 8 9 10 10 10 10 10 11 11 12 12 13 13 14 14 15 14 14 14 14 14 14 15 15 15 16 16 16 17 17 17 18 18 18 18 19 19 19 19 19 19 19 19 19 19 19 18 18
16 17 17 17 17 16 16 16 17 16 16 16 15 15 14 14 14 13 12 12 12 12 11 11 11 11 11 11 10 10 10 10 9 9 8 8 8 8 9 9 10 10 10 10 11 12 12 12 12 12 13 13 13 13 13 13 12 12 13 13 13 13 13 14 14 14 15 15 16 17 17 17 18 18 19 19 19 19 19 18 18 18 18 18 18
17 17 17 17 17 16 16 16 17 16 16 16 15 15 14 14 13 13 12 12 11 11 11 11 11 10 11 10 10 10 10 10 9 8 8 8 8 8 9 9 9 10 10 10 11 11 11 11 11 11 12 12 11 11 11 11 11 11 11 12 12 11 11 11 11 12 12 13 14 15 16 17 17 17 18 18 18 18 18 18 18 18 18 18 18
17 17 17 17 16 16 16 16 16 16 16 15 15 15 14 14 14 13 13 12 12 12 11 11 10 10 10 10 9 9 9 9 9 9 8 8 8 9 9 9 9 10 10 11 11 11 11 11 11 10 11 10 10 10 10 10 10 10 10 11 11 10 10 10 10 10 11 12 12 14 15 16 16 16 17 17 17 18 18 18 18 18 18 18 18
17 17 17 16 16 16 16 16 16 16 15 15 15 15 14 14 14 14 13 13 13 12 11 10 10 9 9 9 9 9 9 9 9 9 9 9 9 9 10 10 10 10 10 11 11 11 10 10 10 10 10 10 9 9 9 9 9 9 9 10 10 9 10 9 9 10 10 11 11 13 13 14 14 15 15 16 16 16 17 18 18 18 17 17 17
16 16 16 15 15 15 16 16 15 15 15 14 14 15 15 14 14 14 14 13 13 12 11 11 10 9 9 9 9 10 10 9 9 9 9 9 9 9 10 10 10 10 10 10 11 10 10 10 9 9 9 9 9 9 8 8 8 9 9 9 9 9 9 9 9 9 10 10 11 12 12 12 13 13 14 14 15 15 16 17 17 17 17 17 17
16 16 16 15 14 15 15 15 15 15 15 14 14 15 15 15 15 14 14 14 13 12 11 11 10 10 9 10 10 10 10 10 10 9 9 9 10 10 10 10 10 10 10 10 10 10 10 10 9 9 9 9 8 8 8 8 8 8 8 8 9 8 8 8 9 9 9 10 10 11 11 11 12 12 12 13 13 14 15 16 16 17 17 17 17
16 16 15 14 14 14 15 15 15 15 15 14 14 15 15 15 15 15 15 14 13 12 12 11 10 10 10 10 11 11 11 10 10 10 9 10 10 10 10 10 10 10 10 10 10 10 10 10 9 9 9 9 8 8 8 8 8 8 8 8 8 8 8 8 8 8 8 9 10 10 10 10 11 11 11 12 12 13 14 14 15 16 16 16 17
15 15 14 14 14 15 15 16 15 15 15 15 15 15 15 15 15 15 15 15 14 13 13 12 11 10 10 10 11 12 12 11 11 11 10 10 11 11 11 11 10 10 10 10 10 10 10 9 9 9 9 9 8 8 8 8 8 8 8 8 8 8 8 8 8 7 7 8 9 9 9 9 10 10 11 11 12 12 13 13 14 14 15 15 16
15 14 14 14 14 14 15 16 15 15 15 15 15 15 15 15 15 15 15 15 14 14 14 14 12 11 11 11 12 13 12 12 12 11 11 11 12 12 11 11 11 10 10 10 9 9 9 9 9 9 8 8 8 8 8 8 8 8 8 7 7 7 7 7 7 6 7 7 7 8 8 8 9 10 10 11 11 12 12 13 13 14 14 15 15
15 14 14 14 14 14 15 16 15 15 15 15 15 15 15 15 15 15 15 15 14 14 15 14 13 12 12 11 12 13 12 12 12 12 12 12 12 12 11 11 11 11 10 10 9 9 9 9 9 8 8 8 8 8 8 8 8 8 8 7 7 7 7 7 7 6 6 6 6 6 7 7 8 8 9 10 11 11 12 12 13 13 14 14 14
15 14 14 14 14 15 16 16 16 16 15 15 15 15 15 14 15 15 15 15 14 14 14 14 14 13 12 12 12 12 12 12 13 13 13 13 12 12 12 11 11 11 11 10 9 9 9 9 9 8 8 8 8 8 8 8 8 8 8 8 7 7 7 7 6 6 6 6 6 5 6 6 6 7 8 9 10 10 11 12 12 13 13 14 14
15 15 15 15 15 15 16 16 16 16 15 15 15 15 15 14 15 15 15 14 14 14 14 14 14 13 12 12 12 12 12 13 13 13 13 13 13 12 12 11 11 11 11 10 10 10 10 9 9 9 8 8 8 8 7 7 7 7 8 8 7 7 7 7 6 6 5 5 5 5 5 5 6 6 7 8 9 9 10 11 11 12 13 13 14
15 15 15 15 16 16 16 16 16 15 15 15 15 15 15 15 15 15 15 14 14 14 14 14 14 13 12 12 12 12 12 12 13 13 13 13 13 12 12 11 11 11 11 11 11 10 10 10 9 9 9 8 8 8 8 7 7 7 7 7 7 7 7 7 6 5 5 5 4 4 5 5 5 5 6 7 8 9 9 10 10 11 12 13 13
16 16 16 16 16 16 16 16 16 16 16 15 15 15 15 15 15 15 15 14 14 14 14 14 14 14 12 12 12 12 12 12 13 13 12 12 12 12 12 11 11 11 11 11 11 10 10 10 10 9 9 9 9 9 8 8 8 8 8 7 7 7 7 6 6 5 5 4 4 4 4 4 5 5 6 6 7 8 8 9 10 10 11 12 12
16 17 16 16 16 16 16 16 16 16 16 15 15 15 16 15 15 15 15 15 14 14 13 13 14 13 12 12 11 11 12 12 12 12 12 12 12 12 12 11 11 11 11 11 11 10 10 10 10 10 9 9 9 9 9 8 8 8 8 8 8 8 7 6 6 5 4 4 3 3 3 4 4 5 5 6 6 7 8 8 9 10 11 11 12
16 16 16 16 16 16 16 16 16 16 16 15 15 15 15 15 15 15 15 14 14 13 13 13 13 13 13 12 11 11 12 12 12 12 12 12 12 12 12 11 11 10 10 11 11 10 10 10 10 10 10 9 9 9 9 9 9 8 8 8 8 8 7 6 4 3 3 2 3 3 3 3 4 4 5 5 6 6 7 8 9 9 10 11 11
16 17 17 17 16 16 16 16 15 15 15 15 15 15 15 15 15 15 15 14 14 14 13 13 13 13 13 12 11 11 11 11 11 11 11 11 12 12 11 11 11 10 10 10 10 10 10 10 10 9 9 9 9 9 9 9 8 8 8 8 7 6 5 4 3 2 1 2 2 3 3 3 4 4 4 5 5 6 7 7 8 9 10 10 11
17 17 17 17 16 16 16 15 15 15 15 15 15 14 14 15 15 15 15 15 14 14 14 13 13 13 12 12 11 11 11 11 11 10 10 11 11 11 11 11 11 10 10 11 10 10 10 10 10 9 9 9 9 9 8 8 8 8 8 7 6 5 3 2 1 1 1 1 1 2 2 3 3 4 4 5 5 6 6 7 8 9 9 10 10
17 17 17 17 16 16 16 15 15 15 15 15 15 14 14 14 14 14 14 14 14 14 14 14 13 13 12 12 11 11 11 10 10 10 10 10 10 10 11 10 10 10 10 10 10 10 10 10 9 9 9 9 8 8 8 8 8 8 7 6 4 3 2 1 1 1 1 1 1 1 1 2 3 3 4 5 6 6 7 7 8 9 10 10 10
17 17 17 16 16 16 16 16 15 15 15 15 15 15 15 14 14 14 14 14 14 14 14 14 13 13 12 12 12 11 11 10 10 10 10 10 10 10 10 10 10 10 10 10 9 9 9 9 9 9 8 8 8 8 8 8 8 7 6 5 3 2 2 1 1 0 1 1 1 1 1 1 2 3 5 5 6 7 7 8 8 10 11 10 10
16 17 17 16 16 16 16 16 16 16 16 16 15 15 15 15 14 14 14 14 14 14 14 14 13 13 12 12 12 11 11 10 10 10 10 9 9 9 9 9 9 9 9 9 9 9 9 9 8 8 8 8 8 8 8 8 7 6 5 4 3 3 3 3 2 1 1 1 2 1 1 1 2 3 5 6 6 7 8 9 10 11 11 11 11
16 17 17 17 16 16 16 16 16 16 16 16 16 15 15 15 15 15 14 14 14 14 13 13 13 12 12 12 12 11 11 10 9 9 9 9 9 9 9 9 9 9 9 8 8 8 8 8 8 8 8 8 8 8 8 7 7 5 5 4 4 4 4 4 3 2 2 3 4 3 3 2 3 4 5 6 7 8 9 11 11 11 11 11 11
17 17 17 17 17 17 17 16 16 16 16 16 15 15 15 15 15 15 14 14 14 14 13 13 13 12 12 12 11 11 10 10 9 9 9 9 8 8 9 9 9 8 8 8 8 8 8 8 8 8 8 8 8 7 7 6 6 5 4 4 4 4 4 3 3 3 3 3 4 4 4 4 5 5 5 6 8 9 10 11 11 11 11 11 12
17 17 17 17 17 17 17 16 16 16 16 15 15 16 16 15 15 15 15 14 14 14 13 13 13 13 12 12 11 11 10 10 9 9 9 9 8 9 9 9 8 8 8 8 8 8 8 8 8 8 7 7 7 7 6 6 5 4 4 3 4 3 3 3 2 3 3 3 4 4 5 5 5 5 6 7 9 9 10 10 10 10 10 11 12
17 17 17 17 17 17 17 17 16 16 16 16 16 16 16 16 15 15 15 14 14 14 13 13 13 13 12 12 11 10 10 10 9 9 9 9 9 9 9 8 8 8 8 8 8 8 8 7 8 7 7 7 7 6 5 5 5 4 3 3 3 3 2 2 2 2 2 3 3 5 5 5 5 6 7 8 8 9 9 9 9 9 10 10 11
Height
812 811 810 809 808 806 806 804 803 802 801 799 798 797 796 795 794 792 791 790 789 788 787 786 785 784 783 782 781 780 779 778 777 776 774 773 772 771 770 769 768 768 767 768 768 769 769 767 766 765 767 768 767 767 767 767 766 765 765 766 766 767 766 767 768 766 764 765 765 765 767 766 763 763 763 761 761 763 766 768 769 769 770 772 773
813 812 811 810 809 807 806 805 804 803 801 800 798 797 796 795 794 793 791 790 789 788 787 786 785 784 783 782 781 779 779 777 777 775 774 773 772 771 770 769 768 767 766 766 766 766 767 767 766 766 766 766 766 765 764 763 763 762 763 764 764 765 765 765 766 766 765 764 764 764 765 765 767 768 766 761 761 762 764 765 765 765 767 768 769
813 813 812 811 810 808 807 806 804 803 801 800 799 797 796 795 794 793 792 790 789 788 787 786 785 784 782 781 780 779 778 777 776 775 774 773 772 771 770 769 768 767 766 766 765 765 765 766 766 766 764 763 763 763 762 760 760 760 760 761 761 762 763 764 764 765 766 764 763 762 762 763 766 767 764 761 760 763 764 764 763 762 763 765 766
815 814 813 812 810 809 808 806 805 803 802 800 799 797 796 795 794 793 792 791 789 788 787 785 784 783 782 781 779 778 777 776 775 775 774 773 771 770 769 768 768 767 766 766 766 765 764 765 765 765 764 762 761 760 759 758 758 758 758 759 759 758 760 763 765 766 767 766 763 761 761 762 762 761 760 759 760 763 766 767 764 761 761 763 764
816 815 814 812 811 810 808 807 805 804 802 801 799 798 796 795 794 793 791 790 789 788 786 785 784 782 781 780 779 778 777 776 775 774 773 772 771 769 768 768 767 766 766 765 764 764 764 763 762 762 762 760 759 758 757 757 757 757 757 758 759 758 759 761 764 765 766 765 762 761 761 763 762 760 759 758 759 761 765 766 764 760 760 762 762
816 815 814 812 811 810 809 807 806 804 803 801 800 798 796 795 794 793 791 790 788 787 786 785 783 782 781 779 778 777 776 775 774 773 772 771 770 769 768 767 766 766 765 764 763 763 762 761 760 759 758 757 756 756 756 756 756 755 755 755 756 757 758 760 761 762 761 760 759 758 759 761 762 762 759 759 759 760 762 762 760 758 759 762 763
817 816 814 812 811 810 809 808 806 805 803 801 800 798 796 795 793 792 791 789 788 787 785 784 783 782 780 779 778 777 775 774 773 772 771 770 769 769 768 766 765 765 764 763 763 762 760 760 758 757 756 755 754 754 754 754 754 752 751 752 752 753 755 756 757 758 758 756 754 754 755 757 758 758 757 758 761 762 761 759 756 755 758 761 762
817 816 814 812 812 810 809 808 806 805 803 801 800 798 796 795 793 792 790 789 788 786 785 783 782 781 780 778 777 776 774 773 772 771 770 769 769 768 767 766 764 763 763 761 761 760 759 758 757 755 754 753 752 752 752 752 751 749 748 749 749 750 751 752 753 754 755 754 753 751 752 753 753 753 754 756 759 759 758 756 754 754 756 757 758
817 816 814 812 812 810 809 808 806 805 803 801 799 798 796 794 792 791 790 788 787 786 784 783 781 780 779 778 777 775 774 773 771 770 770 769 768 767 767 766 764 762 761 760 759 758 757 756 755 754 753 751 751 750 749 749 748 746 746 745 746 747 747 749 750 750 751 751 750 749 749 749 749 749 750 751 751 752 753 753 753 753 753 753 753
817 816 814 813 812 810 809 807 805 804 802 800 799 797 795 794 792 791 789 788 787 785 784 783 781 780 778 777 776 774 773 772 771 770 769 768 767 767 766 765 763 762 760 758 757 756 755 754 753 752 751 750 749 748 747 746 745 744 744 743 743 744 744 746 746 747 748 748 747 747 746 745 745 745 746 745 745 747 749 749 750 751 751 750 749
816 815 814 812 811 810 808 807 805 804 802 800 799 796 795 793 792 791 789 788 786 785 783 782 780 779 778 776 775 774 773 772 770 769 769 767 767 765 764 763 762 761 759 757 756 754 753 753 751 750 749 747 747 746 745 744 742 742 742 741 741 741 742 742 742 743 744 744 744 745 743 742 741 742 742 742 742 743 744 745 746 747 748 748 747
817 816 813 812 811 809 808 807 805 803 801 800 798 796 795 793 791 790 789 787 786 784 783 782 780 779 777 776 775 774 773 772 770 769 768 766 766 764 763 762 761 759 758 756 755 754 752 751 750 749 747 746 745 744 743 743 741 740 740 739 739 739 739 739 739 740 741 741 741 741 741 740 740 740 740 739 739 740 742 743 743 744 745 746 744
817 816 814 813 811 810 809 807 805 804 801 800 798 796 794 793 791 790 788 787 786 784 783 781 780 779 777 776 775 774 773 771 769 768 767 766 765 763 762 762 760 759 757 756 755 753 752 751 749 747 746 745 743 742 741 741 740 739 739 739 737 736 736 736 736 737 738 738 738 738 738 739 738 738 739 739 739 741 742 744 744 744 744 743 741
817 816 815 813 812 810 809 807 806 804 802 800 798 796 795 793 791 790 788 786 785 784 783 781 780 779 777 776 775 774 773 771 769 768 767 765 764 762 761 761 759 758 757 755 754 752 751 750 748 746 745 743 742 742 740 739 738 737 738 738 736 734 733 734 734 734 734 735 736 735 735 736 736 735 736 738 739 740 742 743 743 743 743 741 740
818 816 815 813 812 811 809 807 806 804 802 801 798 797 795 793 792 790 788 787 785 783 782 781 780 779 778 777 775 774 773 771 769 768 767 765 764 762 761 760 759 758 756 755 754 752 750 749 748 746 744 742 741 741 740 739 738 736 736 736 735 733 732 732 732 732 733 733 732 731 731 731 732 732 733 735 737 738 739 740 741 742 742 740 739
818 816 815 814 813 811 809 808 806 804 803 801 799 797 796 794 792 791 788 787 786 784 782 781 780 779 778 777 776 774 773 771 769 768 766 765 764 762 761 760 759 757 756 754 753 751 750 749 747 745 743 741 740 739 739 739 738 736 735 733 732 731 731 730 730 730 730 729 728 727 726 727 728 728 730 732 734 735 736 737 739 740 740 738 737
818 817 815 814 813 811 810 808 806 805 803 801 799 798 796 794 793 791 789 787 786 785 783 781 781 779 778 777 777 775 774 772 770 768 767 766 764 763 762 761 759 758 756 754 752 750 749 748 747 745 743 742 740 739 738 738 737 735 734 732 731 730 729 729 729 728 726 725 725 726 725 725 725 726 727 729 731 733 733 733 734 735 736 735 734
818 817 816 814 813 812 810 809 807 805 803 802 800 798 796 795 793 791 790 788 786 786 784 782 781 780 779 778 777 776 775 773 771 769 768 767 766 764 763 762 760 758 755 753 751 749 748 748 746 745 743 742 741 739 738 737 736 736 734 732 731 729 728 728 728 726 725 724 724 724 723 723 723 723 724 725 727 729 729 728 729 731 732 731 730
818 817 816 815 813 812 810 809 807 806 804 802 801 799 797 796 794 792 791 789 787 786 785 783 782 781 780 780 778 777 776 773 772 770 769 768 767 765 765 763 760 758 755 753 750 748 747 746 745 744 742 741 740 739 738 737 736 735 735 733 731 729 728 727 727 726 725 723 723 722 721 721 721 720 721 722 722 724 724 724 726 727 728 727 726
819 818 817 814 813 812 810 809 807 805 804 803 801 800 798 796 794 793 791 790 789 787 786 785 784 782 781 781 779 778 777 774 772 771 770 769 768 767 766 764 762 759 756 753 751 748 746 745 744 743 742 740 739 738 737 737 736 734 733 732 730 729 727 727 725 724 723 722 721 720 719 719 719 718 719 719 719 720 720 721 722 723 723 722 722
819 818 817 814 814 812 810 809 808 806 805 803 801 800 798 797 795 793 792 791 790 788 787 786 785 784 782 782 780 779 778 776 774 772 771 770 769 768 767 766 764 761 757 755 752 749 747 745 743 742 740 738 737 736 735 735 734 732 730 729 728 727 726 725 723 721 721 719 718 718 717 717 716 716 716 716 716 716 716 716 717 718 718 718 717
819 818 817 815 813 812 810 809 808 806 805 803 802 801 799 798 796 794 793 792 791 790 789 787 786 785 784 783 782 781 779 778 776 773 772 771 770 770 769 767 764 761 758 755 752 749 747 745 743 740 738 735 735 735 734 732 731 729 727 726 725 724 724 722 720 719 718 717 716 714 714 714 714 713 713 713 713 713 713 712 712 713 714 714 714
820 818 817 815 813 812 811 809 808 807 805 804 803 801 799 798 797 796 795 794 793 792 791 789 788 786 785 784 784 782 781 779 777 775 773 772 771 770 768 766 764 761 758 755 752 749 747 745 742 739 736 734 733 732 731 730 729 727 724 722 721 720 720 719 718 717 716 715 714 712 711 711 711 710 710 709 709 709 709 708 708 709 711 711 710
820 818 816 815 813 812 811 809 808 807 806 804 803 802 801 799 798 797 796 796 795 794 792 792 790 788 787 786 785 784 782 780 779 777 775 773 771 769 767 765 762 760 757 754 752 750 747 745 742 738 735 733 731 730 729 728 727 725 722 719 717 717 716 716 715 715 714 713 712 710 709 708 708 708 708 707 706 706 705 705 705 707 708 707 707
819 818 816 814 813 812 811 809 809 807 806 805 804 803 802 801 799 799 798 797 796 795 794 794 792 791 790 788 787 785 784 782 780 778 776 774 771 768 766 764 761 759 756 754 752 750 747 744 741 738 735 732 730 729 728 727 726 724 720 717 715 715 715 714 714 714 714 713 711 710 709 708 707 706 706 706 705 704 703 703 703 704 704 704 704
819 817 815 814 813 812 811 809 808 807 806 805 804 804 803 802 800 800 799 798 798 797 796 795 794 793 791 790 788 787 785 783 781 779 776 774 771 768 765 763 760 758 755 753 751 748 745 743 740 738 736 733 731 730 729 727 726 723 720 718 717 716 715 714 714 713 712 712 711 709 708 707 706 704 704 704 703 703 702 702 702 701 701 703 703
820 817 815 814 813 812 811 809 808 807 806 805 805 804 804 803 802 801 801 800 799 798 797 796 795 794 792 791 790 788 785 784 782 779 777 774 771 768 765 762 760 757 755 753 750 747 745 743 741 739 736 734 732 731 730 728 726 724 722 720 719 718 717 716 715 713 712 711 710 708 707 706 704 703 703 703 702 701 701 701 701 700 699 701 701
820 818 816 815 814 813 812 810 808 807 807 806 805 805 804 803 803 802 801 801 800 799 798 797 796 795 793 791 790 788 786 784 782 780 778 774 771 769 766 763 761 757 755 753 750 748 746 744 742 740 737 735 734 732 731 730 729 727 725 723 721 720 718 717 715 713 712 711 710 708 707 705 704 703 702 701 701 701 700 699 699 698 697 698 698
819 818 816 815 814 814 813 811 809 808 808 806 806 805 804 803 803 801 801 800 799 798 798 797 796 795 794 792 791 788 786 785 783 781 779 775 772 769 766 764 762 759 756 754 751 749 748 745 743 742 740 738 737 735 733 732 731 730 728 727 725 722 720 718 717 715 714 713 711 709 707 706 705 704 702 701 700 700 699 698 697 696 695 695 695
819 818 817 815 815 815 813 812 810 810 809 808 807 806 804 803 802 801 800 799 798 797 797 796 796 795 794 793 791 789 787 785 783 781 779 775 772 770 768 766 763 760 758 755 752 751 749 748 747 745 743 742 741 739 737 736 734 733 732 730 729 726 723 722 720 717 715 714 712 711 710 708 707 705 703 702 700 698 698 697 696 695 694 693 693
820 819 817 817 817 816 814 812 811 811 810 809 808 806 804 803 801 801 800 798 798 797 796 795 795 794 794 792 790 789 787 786 783 781 778 775 772 770 768 766 764 762 759 756 754 753 752 751 750 749 747 746 745 743 742 741 739 738 736 734 732 730 728 726 723 721 719 717 715 714 712 711 709 707 706 704 702 700 698 697 695 694 693 692 691
821 819 818 818 818 817 815 813 812 812 811 810 808 806 804 802 801 800 799 798 797 797 796 795 794 794 793 792 790 788 787 785 783 781 778 775 773 771 769 767 765 763 761 759 757 756 755 754 753 752 751 749 748 747 746 744 743 742 740 737 736 733 732 730 727 724 722 720 718 716 714 713 711 710 708 707 705 702 700 698 696 694 692 691 690
821 820 819 819 818 817 815 814 813 812 811 810 808 806 804 803 801 800 799 798 797 796 795 794 794 794 793 791 790 788 786 785 783 781 779 776 773 772 770 768 766 765 763 761 759 758 758 757 756 755 754 752 751 750 749 747 746 745 743 741 739 737 735 733 730 727 725 722 720 718 716 714 713 711 710 709 707 705 702 700 698 696 694 692 690
822 821 820 820 818 816 815 814 813 812 811 810 808 806 805 804 803 801 800 798 797 796 795 794 794 794 792 791 789 788 786 784 782 781 779 776 774 772 771 769 768 766 765 763 762 761 761 759 758 758 756 755 754 753 751 750 749 747 746 744 742 740 738 736 733 730 728 725 723 720 718 716 715 713 712 710 708 706 704 702 700 698 696 694 691
822 822 821 821 819 816 815 814 813 812 811 809 807 806 806 805 803 802 801 800 798 797 795 793 793 793 792 791 789 787 785 783 781 780 778 776 774 773 772 771 769 767 766 766 765 764 763 762 761 760 759 758 757 755 754 752 751 750 748 746 744 743 740 738 735 733 731 729 726 724 721 719 717 715 713 711 709 708 706 704 703 701 698 696 694
822 822 822 821 818 816 815 814 813 812 811 809 808 807 807 806 805 803 802 801 799 798 796 794 793 793 793 792 789 787 785 783 780 779 778 776 775 774 773 772 771 769 768 768 768 767 766 765 764 763 762 761 759 758 756 755 753 752 750 748 746 744 742 740 738 736 734 732 730 728 725 723 721 718 715 713 711 709 707 705 704 702 700 698 696
823 822 822 821 818 816 816 815 814 813 812 810 809 808 807 807 806 804 802 801 800 799 798 796 794 793 793 792 791 788 785 782 781 779 778 777 776 775 775 774 772 771 771 770 770 769 768 768 767 766 765 763 762 761 759 757 756 754 752 750 748 746 744 742 740 738 735 733 731 729 728 726 724 722 719 716 714 712 709 707 704 702 700 698 696
823 822 821 820 818 816 815 814 813 813 812 811 809 807 807 807 806 804 803 802 801 800 798 796 794 794 793 792 792 789 786 783 781 780 779 778 777 776 775 775 774 773 772 772 771 770 769 769 768 767 766 765 764 763 762 760 758 756 754 752 750 749 746 744 742 739 737 735 732 730 728 727 725 723 721 718 716 714 712 709 706 704 701 698 696
821 820 820 818 817 816 815 814 813 813 812 810 808 807 807 806 805 803 803 802 801 800 798 796 794 794 793 793 792 790 787 784 782 781 780 779 778 777 776 776 776 774 773 772 771 771 770 769 769 768 767 766 765 764 763 762 760 758 756 754 753 751 749 746 744 742 739 737 734 732 730 727 725 723 721 719 717 715 713 710 708 705 703 700 697
821 820 819 818 817 816 815 814 814 813 811 811 809 808 807 806 804 803 802 802 801 800 799 797 795 794 794 793 792 791 789 786 784 783 782 781 780 778 777 777 777 776 774 773 772 771 771 770 769 768 767 766 765 764 763 762 761 759 757 756 754 752 750 749 747 744 742 739 737 734 731 729 726 724 722 720 718 716 713 711 709 706 704 701 699
820 819 819 818 817 816 815 814 814 812 810 810 810 808 807 805 804 802 802 802 802 801 800 799 797 795 794 793 792 791 790 788 786 785 784 782 781 780 779 778 778 777 775 774 773 772 771 770 770 769 767 766 766 764 763 762 761 759 758 756 755 753 752 750 748 746 744 741 738 736 733 730 728 725 723 720 718 716 714 711 709 707 705 702 699
820 819 819 817 817 816 815 815 814 813 812 811 810 809 808 806 804 803 802 802 803 802 801 800 798 797 795 794 792 792 791 789 788 787 785 784 782 781 780 779 779 778 777 775 774 773 772 771 770 769 768 767 766 765 763 762 761 759 758 757 755 754 752 751 749 747 744 742 740 737 735 732 729 726 724 721 719 716 714 712 709 707 705 702 700
819 819 819 818 816 815 816 816 815 814 814 813 811 811 810 808 806 805 803 803 802 801 801 800 798 797 796 795 793 793 792 790 789 788 786 785 783 782 781 780 780 779 778 777 775 774 773 771 771 770 769 768 767 765 764 763 761 760 759 758 756 755 753 751 749 747 744 742 740 737 735 732 730 727 724 721 719 716 714 712 709 707 705 703 700
819 818 818 817 816 816 817 816 816 816 815 814 813 812 811 809 808 806 804 803 802 801 800 799 798 796 796 795 794 794 793 792 791 790 788 787 785 783 782 781 781 780 779 777 776 775 773 772 771 770 769 768 767 766 765 764 762 761 760 758 757 756 754 752 749 747 744 742 739 737 734 731 728 726 723 720 718 716 713 711 709 707 705 703 700
819 818 817 817 816 817 817 816 816 815 815 813 813 812 810 810 808 807 805 804 802 801 800 799 797 797 796 796 795 794 793 793 792 791 789 788 787 785 784 783 782 780 779 778 777 775 774 773 772 771 770 769 768 767 766 764 763 762 760 759 758 757 755 753 750 747 744 742 739 736 733 730 727 725 722 719 717 715 712 710 708 706 705 703 700
819 818 817 817 817 817 816 815 815 814 813 812 811 810 809 808 808 807 806 804 802 801 799 798 797 797 797 796 795 794 793 793 792 791 790 789 788 786 785 784 783 782 780 779 777 776 775 774 773 772 771 770 769 767 766 765 764 762 761 759 758 757 755 753 750 747 744 742 739 735 733 730 727 724 722 719 717 714 711 708 707 706 704 702 700
818 818 817 817 817 816 815 814 813 812 811 810 809 808 807 807 806 805 804 803 802 801 799 798 798 797 796 796 795 794 793 793 792 791 790 790 788 787 786 785 783 782 781 780 779 777 776 775 774 773 772 771 769 768 767 766 764 762 761 759 758 757 754 752 749 746 744 741 738 735 732 729 726 723 721 718 716 713 709 707 706 705 703 701 699
817 816 816 816 815 815 814 813 812 811 810 809 808 807 806 805 804 803 802 802 801 800 800 799 798 797 796 795 795 794 793 793 792 791 791 790 789 788 787 785 784 783 782 781 780 778 777 776 775 773 772 771 770 768 767 766 764 763 761 760 759 757 754 752 750 746 743 740 737 734 731 728 726 723 720 718 715 712 709 707 706 704 702 700 698
816 815 815 814 813 813 812 811 811 810 809 808 807 806 805 804 802 801 801 800 799 799 799 798 797 797 796 795 794 794 793 793 792 792 791 790 789 788 787 785 784 784 783 781 780 779 778 777 775 774 773 771 770 769 767 765 764 763 761 760 758 756 754 752 750 747 743 740 736 733 731 728 725 723 720 718 716 713 710 708 706 704 702 699 696
815 814 814 813 812 811 811 810 809 808 807 807 805 803 802 801 800 799 798 798 798 797 797 797 796 796 795 794 794 794 793 792 792 791 791 790 789 788 787 785 785 784 783 782 781 779 778 777 775 774 773 771 770 769 767 765 764 763 761 759 758 756 754 752 749 747 744 740 736 733 730 728 725 723 721 718 716 714 711 709 706 704 702 699 696
814 813 812 812 811 810 809 808 807 807 806 805 803 801 800 799 797 796 796 796 796 795 796 795 795 794 794 794 793 793 793 792 792 791 790 790 789 787 786 786 785 784 783 782 780 779 778 777 775 774 773 771 770 768 766 765 764 762 760 759 757 755 753 751 748 745 743 740 736 733 730 727 725 724 722 719 717 714 712 710 708 706 703 700 697
Wind_Speed
13 14 15 15 15 16 17 17 17 18 18 18 17 17 18 19 19 19 19 18 19 19 19 18 19 19 18 17 17 18 18 18 19 18 17 17 16 15 15 16 15 14 15 16 13 14 17 16 14 16 16 18 19 17 17 18 17 18 17 16 17 15 12 11 7 8 18 20 16 18 21 19 17 17 15 15 18 20 19 22 26 27 27 26 26
12 14 16 15 15 16 17 18 18 18 18 18 17 17 17 18 18 19 19 18 18 18 19 19 19 19 19 18 18 18 17 18 19 19 18 19 18 17 16 16 15 15 18 17 13 14 18 16 13 13 14 15 17 17 18 19 18 18 18 17 19 18 13 14 13 9 11 16 17 18 16 11 13 19 15 7 9 15 19 20 22 26 27 25 24
13 15 16 15 15 16 17 18 18 19 19 19 18 17 18 18 18 18 19 19 19 18 19 20 20 20 20 19 19 19 18 18 18 18 19 19 19 18 17 16 15 16 18 15 10 10 14 15 12 12 13 15 16 16 16 18 18 18 19 19 20 20 18 15 15 12 9 13 17 17 14 11 10 14 14 7 5 10 16 19 19 20 22 22 23
14 16 16 15 16 16 17 18 18 19 20 19 19 19 19 19 18 18 18 19 19 19 20 20 21 21 20 20 20 19 19 19 17 18 18 18 19 19 17 17 17 16 16 15 12 10 11 14 14 12 13 15 17 18 18 17 16 17 18 20 20 21 21 16 12 11 10 14 17 14 13 13 10 10 13 12 10 9 14 18 17 14 15 16 18
14 15 15 16 16 16 17 18 18 19 20 19 19 19 19 19 19 19 19 19 20 20 20 20 20 20 20 20 20 20 20 20 19 19 18 18 19 18 16 16 16 17 16 15 14 13 13 15 16 13 13 15 17 18 19 16 14 14 16 18 20 20 19 16 13 12 12 14 17 17 14 12 11 10 9 11 12 10 11 15 14 11 11 13 14
14 14 15 16 16 17 17 17 18 19 19 18 19 19 19 19 20 20 20 20 20 20 19 20 19 19 20 20 21 21 21 21 20 20 19 18 17 17 16 16 16 17 17 16 15 15 15 16 17 14 13 16 17 16 15 14 12 13 14 15 18 19 18 16 15 15 16 18 20 18 13 11 15 14 9 8 12 14 15 15 14 11 10 12 13
14 15 15 15 16 16 17 17 17 18 18 18 19 19 19 20 20 20 20 20 20 20 20 20 20 19 19 19 20 20 20 21 20 18 17 17 17 16 16 17 18 18 17 17 17 16 15 16 17 16 16 18 18 16 14 13 13 15 16 15 15 17 18 17 16 16 18 20 22 22 16 11 12 15 13 10 13 19 21 18 15 15 13 12 14
15 15 15 15 16 16 16 17 17 17 18 18 19 19 19 20 21 21 20 20 20 20 20 20 20 19 19 19 19 19 20 19 17 16 17 17 17 17 18 18 19 20 19 19 19 19 18 17 16 17 18 17 17 17 14 11 13 16 17 16 15 16 17 17 15 16 18 18 19 23 20 14 15 15 14 13 15 20 22 19 16 16 15 15 16
14 15 15 15 15 16 16 17 17 18 19 19 19 19 19 20 21 21 21 21 20 20 20 20 20 20 20 19 19 19 18 18 16 16 17 17 17 18 18 18 19 20 22 21 20 20 20 19 17 17 17 17 17 19 16 14 16 18 18 17 16 16 16 16 15 15 16 16 17 19 17 13 14 15 15 16 19 20 19 17 16 15 14 16 19
13 14 15 15 16 16 16 17 17 18 19 19 19 20 20 20 21 21 22 21 21 21 21 21 20 20 20 20 19 19 18 17 17 17 18 17 18 18 18 17 18 19 20 21 21 21 20 20 19 18 18 18 19 21 20 18 19 19 19 19 19 19 17 17 17 16 15 14 16 16 13 12 14 16 17 20 22 20 18 16 15 14 13 14 17
13 14 14 15 16 16 16 17 18 18 19 19 19 20 20 21 20 21 21 21 21 21 21 21 21 20 20 20 20 20 18 16 17 18 18 17 18 18 18 17 17 18 19 19 21 21 21 21 21 20 20 20 19 20 20 19 19 19 19 20 21 22 21 18 17 17 15 14 15 16 14 14 16 17 17 18 20 21 21 19 17 14 12 9 10
13 13 14 15 16 17 17 18 19 19 20 20 20 21 21 21 21 21 20 20 20 20 20 21 20 20 21 20 21 22 19 17 19 19 17 16 16 17 19 18 17 18 18 18 19 21 21 22 22 21 21 20 18 17 18 19 20 20 19 19 20 22 23 22 21 19 17 16 15 17 17 17 17 17 16 17 18 19 19 18 17 16 15 13 12
13 13 14 15 16 17 18 19 19 19 20 21 21 21 21 21 21 21 21 21 20 20 20 20 20 20 20 20 22 22 19 18 20 20 18 17 17 18 19 19 17 18 18 19 20 21 22 23 24 23 23 22 19 17 18 19 19 19 19 19 20 21 22 23 24 24 23 22 19 19 19 18 17 18 19 18 15 13 13 13 14 15 16 18 19
13 14 15 15 16 17 18 18 19 19 20 21 22 22 22 21 21 21 21 21 21 20 21 21 21 21 20 20 20 18 17 18 20 20 20 20 19 18 17 16 17 18 19 20 20 21 22 23 23 23 23 23 22 21 20 18 17 17 18 19 20 21 21 21 21 22 25 25 25 25 25 22 22 22 22 19 14 11 14 16 16 17 18 18 19
13 14 15 15 16 17 18 18 19 20 21 22 21 21 22 22 22 22 21 21 21 21 21 21 21 21 22 21 18 14 14 17 19 21 23 23 21 19 17 16 17 18 19 20 22 22 23 23 21 20 21 22 21 19 18 17 17 18 17 17 20 21 21 21 19 18 18 20 23 27 28 27 28 28 26 22 18 15 17 19 19 21 21 19 20
14 15 15 16 17 18 18 19 19 20 21 21 21 21 22 22 22 23 23 22 21 21 20 20 21 21 21 21 18 13 14 18 21 22 25 25 25 22 19 18 18 18 20 23 25 24 24 23 22 20 19 19 19 17 15 16 18 18 17 17 18 19 19 19 18 17 17 18 22 24 25 25 27 28 27 24 21 20 19 18 19 20 20 19 21
15 16 16 16 18 18 18 18 20 20 21 20 21 22 22 22 21 22 22 22 21 20 19 18 19 19 20 21 19 13 14 19 23 24 26 27 28 25 21 18 17 18 22 26 27 26 23 22 22 20 16 15 17 17 15 15 17 17 17 18 19 18 17 15 14 14 16 19 22 22 22 23 26 27 27 23 21 20 19 19 21 22 19 15 14
16 16 16 18 18 17 17 18 19 20 20 19 20 21 22 22 22 21 20 20 19 19 19 19 18 18 19 21 20 15 14 17 22 26 28 29 30 27 22 18 18 19 22 26 26 25 22 21 21 19 15 13 16 18 16 17 20 19 18 19 20 19 15 10 9 11 13 15 17 18 18 19 23 27 29 27 24 22 21 22 23 23 20 16 14
16 16 17 18 17 17 17 18 19 19 19 18 19 20 21 21 22 21 19 18 19 19 19 19 19 19 19 19 18 17 16 16 21 27 29 29 30 28 21 19 20 20 22 23 24 23 22 21 19 17 15 14 17 18 18 20 24 24 22 21 19 17 13 12 13 14 15 15 16 16 17 18 18 21 24 25 25 26 26 27 26 23 20 20 19
16 16 18 17 17 17 17 17 19 19 18 18 19 20 20 21 21 21 19 18 18 20 20 19 18 19 20 20 19 19 18 18 21 27 29 29 30 28 22 20 21 22 21 21 21 22 22 21 18 17 18 18 19 21 21 23 25 26 26 23 18 16 17 20 23 23 21 21 21 19 20 20 20 20 21 21 21 23 25 27 28 27 26 24 22
17 17 18 17 16 17 16 17 18 18 17 19 20 20 20 20 20 20 19 18 19 20 19 18 18 18 19 19 19 20 20 20 22 27 29 29 29 28 23 21 22 22 21 20 20 20 21 21 19 19 21 23 24 25 25 26 25 25 27 26 22 22 23 25 26 25 24 23 22 20 20 20 20 20 20 20 21 22 23 25 27 29 31 29 25
16 17 18 16 16 16 16 16 17 17 17 19 20 19 19 19 19 19 18 18 19 19 19 18 18 17 18 18 18 20 21 20 21 25 29 30 30 28 25 24 24 22 21 20 21 19 19 20 21 22 26 28 28 27 26 26 26 26 27 27 25 25 25 25 25 25 24 22 21 19 18 17 18 19 19 19 20 22 23 25 26 28 30 32 30
15 16 17 16 16 16 15 15 16 16 17 19 18 18 19 19 18 19 18 18 18 18 18 19 19 18 18 18 17 19 20 19 19 24 28 29 30 28 27 27 26 23 21 21 20 19 19 21 24 27 28 28 27 25 24 24 23 23 24 24 23 23 22 23 24 24 22 21 20 20 20 18 17 18 19 20 20 20 22 23 25 25 26 28 30
16 17 16 16 16 15 14 15 15 15 17 18 17 18 19 18 17 18 18 18 17 17 17 18 17 16 16 17 16 18 20 19 19 21 25 28 28 28 29 28 27 26 24 20 18 19 22 24 27 28 27 24 23 21 20 20 20 21 21 20 20 21 22 22 22 21 20 20 19 19 20 20 18 17 18 20 21 20 21 21 19 18 21 25 27
17 16 15 16 17 15 14 16 15 13 15 17 17 18 18 17 16 17 18 17 16 16 16 17 16 16 16 16 17 19 20 19 19 21 24 27 27 28 29 28 27 28 26 20 19 22 24 24 26 26 25 22 21 20 18 19 21 22 22 19 15 15 17 18 19 17 16 17 17 17 19 20 20 19 20 21 20 18 19 20 18 16 19 22 23
18 17 15 16 17 16 17 17 15 13 15 16 16 16 17 16 16 16 17 16 16 15 16 16 17 17 17 17 19 20 20 20 20 22 25 26 27 30 31 28 28 28 25 21 23 25 23 22 23 24 22 20 20 19 18 19 22 24 24 24 23 20 17 15 14 12 11 12 14 16 18 20 21 21 21 21 20 17 15 16 16 15 15 17 19
18 18 17 16 16 17 18 18 14 13 14 14 14 14 15 15 14 14 15 15 14 13 13 14 14 15 15 16 18 19 19 19 20 23 26 27 28 31 31 29 29 29 27 25 25 24 21 20 20 20 21 20 19 19 19 20 22 24 24 25 24 23 22 20 18 17 16 15 15 15 16 17 17 18 18 18 18 17 15 13 13 13 14 16 18
16 17 17 16 15 17 17 17 15 15 14 15 14 12 11 12 11 12 13 12 11 10 9 10 10 11 13 15 17 18 18 18 20 24 27 28 29 30 30 28 28 29 28 26 23 20 18 18 20 20 21 20 20 20 20 20 21 23 23 23 23 24 24 22 22 23 22 21 20 19 19 17 17 17 18 17 17 16 16 14 13 14 14 13 14
16 16 16 15 16 16 16 15 16 16 15 16 16 13 10 10 9 10 10 11 10 8 6 6 8 9 10 12 15 16 16 17 20 22 24 25 26 27 27 26 25 27 26 22 19 17 17 18 20 21 21 21 21 21 21 22 21 22 22 22 22 24 24 23 23 24 23 22 21 21 20 19 18 18 19 18 18 18 17 17 15 14 14 13 14
16 16 16 15 16 16 16 15 16 16 16 17 17 15 12 9 8 10 11 10 10 9 7 7 7 7 8 11 14 14 15 17 20 21 22 23 23 23 22 21 21 24 24 20 17 18 18 18 19 20 20 20 21 21 22 22 22 22 22 21 21 23 23 22 23 23 22 22 21 20 20 20 18 18 19 19 20 20 19 18 17 14 13 12 12
16 15 14 14 15 16 15 15 15 15 17 17 16 15 14 10 9 11 13 11 10 9 7 7 7 8 10 15 19 17 16 19 21 21 21 22 22 22 21 20 20 23 23 19 18 18 18 18 19 20 20 19 20 20 21 21 21 21 21 21 21 22 21 22 25 24 21 20 20 19 19 19 18 18 18 18 19 20 19 19 19 16 13 12 11
15 14 12 14 15 16 15 15 14 14 15 16 16 15 15 13 11 11 12 12 9 8 8 7 5 6 10 18 23 23 20 21 22 20 19 21 21 21 21 21 21 22 21 19 17 18 18 18 19 19 19 19 19 20 20 20 20 20 20 20 21 22 21 22 24 22 20 20 20 18 18 19 18 17 17 17 17 18 18 19 20 19 17 15 12
14 13 14 15 14 14 13 13 13 12 13 14 16 15 15 16 16 14 15 13 9 7 9 7 4 4 9 17 25 25 22 22 23 19 16 20 21 19 18 20 21 21 21 20 18 18 18 18 18 19 19 19 19 20 20 20 19 19 19 20 20 21 22 23 24 22 20 20 20 19 19 19 18 17 17 17 17 17 17 18 19 19 18 17 15
12 13 16 15 14 14 12 12 12 13 13 13 14 14 14 16 16 16 17 16 12 11 12 9 3 4 8 16 26 28 24 23 23 17 12 17 21 18 16 17 19 20 20 20 19 18 18 18 18 19 19 20 20 20 20 19 19 19 19 20 20 21 22 23 23 23 22 21 21 21 21 20 18 17 18 17 16 16 16 17 18 19 19 18 17
10 12 15 14 13 12 13 13 12 14 14 14 14 14 16 17 16 15 16 16 15 16 16 10 3 3 7 16 26 28 25 23 21 14 9 14 20 19 18 18 19 19 19 19 19 18 18 18 18 18 19 19 19 19 19 19 19 20 20 20 20 21 22 22 23 23 22 21 21 21 21 21 19 18 18 17 16 16 16 16 16 17 18 18 18
10 11 12 11 12 12 13 13 13 14 15 16 16 16 15 16 16 16 16 16 15 16 18 15 6 4 10 21 27 27 26 24 19 13 12 15 17 19 19 18 18 18 18 18 18 18 17 18 18 18 18 18 18 18 18 19 19 20 20 20 20 21 21 22 22 22 21 20 20 20 20 20 20 20 19 18 17 17 17 17 16 16 17 17 17
8 9 11 11 11 12 12 13 14 15 16 16 15 14 14 16 17 16 16 17 16 15 18 19 13 9 14 22 26 27 28 25 18 15 17 18 17 17 18 18 18 18 17 17 17 17 17 18 18 18 19 19 18 18 18 19 19 20 21 21 21 21 22 22 22 23 22 21 21 20 20 19 19 19 18 17 16 17 18 17 17 17 17 17 16
4 4 10 12 12 11 11 12 13 15 16 15 14 12 14 15 16 14 15 17 17 15 16 18 16 12 13 17 21 25 28 23 17 16 18 19 18 17 17 18 18 17 17 17 17 16 16 17 18 18 18 18 18 18 18 18 19 19 21 21 21 21 22 22 23 23 23 22 22 22 21 21 21 20 19 17 16 16 17 17 17 17 18 18 16
4 1 7 10 11 11 11 12 13 13 13 14 16 14 14 14 15 13 14 16 17 16 16 17 15 12 11 13 18 24 25 21 17 17 18 18 18 17 17 17 17 17 16 17 17 17 16 17 17 17 16 16 17 17 17 18 19 19 19 20 21 22 22 22 22 23 23 23 23 22 22 22 22 21 20 18 17 17 17 17 17 18 18 18 18
7 5 6 8 10 9 9 12 16 14 9 11 16 15 12 14 15 13 14 15 16 16 17 19 17 14 13 16 20 23 23 19 17 17 18 17 18 17 17 16 17 18 17 16 17 17 17 16 17 16 16 17 17 16 16 17 18 19 19 19 20 21 21 21 21 21 21 21 22 22 21 22 22 22 21 20 20 19 18 17 16 17 18 19 19
7 6 6 8 10 10 8 12 17 16 10 13 17 17 14 14 15 14 14 16 16 16 17 20 19 16 16 18 21 22 21 18 16 17 17 17 17 17 17 17 17 18 19 17 17 17 16 16 17 17 17 17 18 17 16 16 16 17 19 19 19 20 20 20 20 20 20 20 20 20 21 21 22 22 21 21 21 21 19 17 16 17 17 18 19
8 6 6 6 10 13 11 12 17 17 15 16 19 19 19 18 17 17 17 16 16 16 16 17 18 17 17 20 22 21 18 17 17 17 17 17 16 17 16 16 17 18 19 18 18 18 17 17 17 18 18 18 18 18 18 18 17 18 19 19 19 20 20 19 20 20 21 20 20 20 21 21 20 21 22 23 23 23 21 18 17 17 17 18 18
9 8 7 6 10 13 12 13 16 17 17 17 17 18 19 19 18 18 17 15 15 16 16 15 16 17 17 19 22 20 18 17 17 17 17 18 18 17 16 16 16 16 16 16 17 17 17 16 16 16 17 17 17 18 18 18 18 19 19 19 19 19 19 20 20 21 22 22 22 21 21 20 20 22 25 27 27 26 24 21 19 18 18 19 19
10 8 7 8 11 11 11 11 12 12 13 14 14 14 16 17 17 18 17 17 17 17 16 16 16 16 17 18 19 18 17 16 16 16 17 18 18 17 16 16 17 17 16 15 15 16 16 16 16 15 16 17 18 18 17 17 17 17 18 19 19 19 19 21 23 24 24 23 23 23 23 23 24 26 29 30 29 27 24 22 19 16 17 19 18
10 8 8 9 9 9 9 9 9 9 9 11 12 12 12 13 14 16 17 17 18 17 16 16 16 16 16 17 17 17 17 16 16 16 16 16 16 17 16 16 17 18 18 17 17 17 17 16 16 16 16 17 17 17 16 17 16 16 16 17 18 18 19 22 25 26 25 24 23 23 24 25 26 27 28 28 28 26 26 25 20 16 16 19 18
9 7 8 8 8 9 9 8 8 8 9 9 10 11 10 9 10 12 13 14 16 17 17 17 16 16 16 16 16 15 15 16 16 16 16 15 15 16 16 16 16 17 17 18 19 19 18 17 16 16 16 16 17 17 17 17 15 14 14 15 17 21 26 29 29 28 26 25 26 25 24 25 27 28 28 27 26 26 28 26 21 16 17 20 19
9 8 8 8 8 9 11 10 10 11 11 11 11 12 11 9 10 11 11 11 14 16 17 17 16 16 15 15 15 14 13 14 15 16 16 15 15 15 16 16 16 16 16 17 17 17 17 17 16 16 16 16 16 16 16 16 15 14 13 14 19 28 34 34 32 30 29 29 30 29 27 26 28 28 29 28 27 27 27 23 17 16 19 20 19
11 9 8 7 8 10 11 11 12 13 13 13 13 13 13 13 13 13 12 11 11 13 15 16 16 15 15 15 15 13 12 12 14 15 15 15 14 14 14 15 16 15 16 16 16 16 17 17 16 16 16 16 16 16 17 15 13 13 15 18 25 31 33 31 31 32 34 34 34 32 30 28 27 26 27 28 27 27 26 21 17 19 21 20 18
11 9 9 9 10 10 11 12 13 14 14 14 14 14 14 14 14 13 13 11 9 9 12 14 13 13 14 14 14 13 13 12 13 14 14 14 13 13 14 15 15 15 15 15 16 16 16 16 16 16 16 16 16 17 15 12 11 14 19 24 29 31 30 28 30 33 34 34 35 34 31 27 25 25 26 26 25 24 24 23 22 21 22 20 18
11 10 11 11 11 12 12 12 14 15 14 15 15 15 14 14 13 12 11 10 8 7 10 13 13 12 13 13 12 13 13 13 12 13 13 13 12 13 14 14 15 15 15 15 15 15 16 16 16 16 16 17 17 16 12 12 16 20 24 26 29 31 29 29 30 32 32 32 33 32 28 25 24 24 24 23 22 22 22 23 23 22 22 22 20
12 12 11 11 12 13 13 13 14 16 16 16 18 17 15 14 13 9 7 8 9 8 8 10 11 12 12 13 12 12 13 12 12 12 12 12 13 13 13 14 15 15 15 15 16 16 16 16 16 16 17 17 15 13 13 16 21 24 25 28 31 31 30 29 30 31 31 31 29 27 25 23 23 22 21 21 21 21 21 21 21 21 22 22 20
Wind_Direction
21 12 4 356 355 358 355 352 350 347 344 343 341 340 340 339 337 336 335 335 336 335 334 336 336 335 334 331 329 328 329 331 332 332 330 326 317 309 312 311 303 299 298 298 302 295 284 280 285 290 292 288 281 274 269 275 279 271 269 271 270 267 251 233 230 258 271 274 264 264 276 279 278 271 254 237 225 220 227 231 224 218 219 224 230
14 9 358 350 351 353 349 346 344 342 341 341 341 339 338 336 335 334 333 334 334 333 333 333 332 331 329 327 326 325 326 328 329 329 327 326 324 319 317 315 306 301 302 301 299 296 292 286 285 290 290 285 282 278 274 276 279 274 270 266 265 266 257 239 241 248 261 268 266 267 274 277 275 275 273 262 240 233 231 230 222 217 219 222 227
11 5 351 345 348 347 343 341 339 337 337 338 339 339 337 335 334 333 333 333 332 331 331 330 329 329 328 327 326 325 326 327 327 326 323 323 322 320 320 319 309 303 305 303 298 299 298 291 286 287 283 276 273 276 280 280 277 275 272 264 257 261 265 255 244 243 255 272 274 275 281 286 277 270 269 268 285 278 255 235 219 211 217 222 223
5 358 344 341 346 343 339 337 334 334 335 335 337 337 336 335 333 333 333 332 330 329 328 328 328 329 328 327 327 326 327 328 328 325 322 320 319 319 322 322 316 312 311 311 311 311 301 293 293 289 277 273 274 275 278 278 274 275 275 269 260 256 262 266 261 260 273 281 279 275 278 291 304 294 271 249 243 275 274 254 235 215 213 219 222
355 350 340 339 342 339 335 334 333 333 332 332 334 334 334 334 333 333 332 331 329 327 327 328 327 327 327 327 327 327 329 330 329 325 320 317 317 319 326 329 329 327 323 320 319 315 307 299 297 288 273 276 284 282 279 277 274 277 279 277 273 265 261 268 275 273 267 266 275 287 291 296 312 319 295 261 238 235 257 263 256 243 235 233 227
347 343 337 337 338 335 333 332 333 332 331 331 332 332 332 331 331 331 330 330 328 327 327 327 326 326 326 326 327 326 327 328 326 323 323 324 326 328 331 334 335 332 327 325 323 315 308 304 302 289 270 274 283 283 283 281 275 274 273 271 272 269 260 260 265 265 256 248 254 268 273 274 286 287 270 260 261 254 255 256 249 243 254 265 255
341 337 334 334 333 332 333 332 330 330 330 330 330 330 330 329 329 328 328 328 327 327 328 328 327 327 326 326 326 326 326 325 324 327 333 338 340 338 335 334 333 330 326 324 323 318 310 305 303 291 277 278 281 277 276 277 276 277 274 266 263 261 254 250 251 253 254 249 245 245 235 218 240 254 246 245 256 256 257 257 250 238 234 250 259
336 333 332 334 333 333 333 330 329 330 331 330 330 330 329 328 327 326 326 326 325 326 327 326 326 327 327 328 328 328 327 327 330 335 340 343 342 337 334 332 330 327 325 323 320 318 313 307 302 293 284 282 282 278 269 261 270 281 281 272 263 258 256 253 247 243 246 249 250 252 246 218 203 220 235 234 229 237 245 248 246 240 231 234 244
334 332 334 336 336 335 333 330 330 331 331 331 330 330 329 328 327 325 324 324 324 325 325 325 325 326 328 329 329 330 329 328 332 336 337 340 339 335 333 330 328 325 323 321 318 314 312 308 304 297 289 285 283 280 270 260 267 276 276 270 259 250 252 256 253 245 239 241 246 251 251 234 213 210 212 218 226 236 242 238 234 235 235 240 244
336 336 338 340 339 338 336 335 336 334 332 331 330 330 329 329 328 326 325 324 324 324 325 325 326 326 328 329 330 330 329 331 338 341 341 340 339 338 335 327 324 322 318 316 314 311 310 309 306 303 299 294 288 280 272 269 273 274 270 267 259 250 247 251 253 249 239 236 240 244 245 243 239 230 223 229 236 237 234 228 226 228 233 244 249
340 341 344 345 345 345 343 341 340 337 336 334 332 331 331 331 331 329 328 327 325 326 326 325 327 328 328 329 328 329 331 339 348 351 349 347 345 342 337 327 321 317 312 309 309 308 309 309 308 306 305 302 295 286 276 271 272 272 270 268 263 257 251 249 252 252 247 244 244 245 247 249 249 246 242 242 239 235 231 225 217 216 219 230 246
347 348 350 350 350 350 347 344 341 339 338 336 334 334 334 334 334 331 330 328 326 327 327 325 327 329 328 329 331 332 339 348 349 348 347 346 343 338 334 327 319 313 310 308 307 308 308 309 309 308 305 303 302 296 286 278 275 272 271 270 269 266 260 254 252 252 253 254 253 249 248 251 254 251 248 246 238 229 228 222 214 214 217 219 230
354 354 353 352 352 350 347 344 341 339 339 338 337 337 337 337 336 333 330 329 327 327 328 327 328 328 329 335 338 340 348 354 348 345 343 338 331 329 329 326 319 314 314 312 310 309 309 311 314 313 310 309 308 305 297 288 282 279 277 275 273 272 268 262 259 256 255 256 257 256 254 253 256 254 251 251 244 221 213 221 220 217 222 230 237
358 356 353 352 352 349 346 343 340 338 339 341 341 341 341 340 339 337 334 332 331 331 331 330 329 330 334 338 343 349 357 357 355 355 353 346 338 335 333 329 324 323 325 325 322 318 316 317 318 317 319 322 321 315 305 293 286 288 286 279 276 274 272 270 267 262 258 255 256 259 260 257 257 259 257 255 249 222 212 226 235 233 234 242 249
359 356 353 353 352 348 345 341 339 339 340 342 343 343 344 343 342 341 339 337 335 335 335 335 335 340 343 341 347 3 11 7 8 8 3 360 359 357 349 342 339 338 338 339 338 334 331 329 325 323 326 331 329 322 313 300 292 293 291 283 281 280 277 273 271 266 263 260 257 257 259 258 257 259 258 254 252 242 227 228 239 243 244 249 255
1 357 355 353 350 347 344 341 341 342 342 343 344 345 345 344 343 345 344 342 340 338 340 344 348 352 354 350 352 12 27 19 14 11 6 4 8 8 360 351 350 348 343 341 339 339 339 337 331 325 327 334 336 330 321 312 304 300 297 293 289 285 284 283 278 272 267 263 259 256 257 260 262 263 262 254 249 249 244 236 237 239 240 246 252
1 355 354 351 347 345 344 342 343 344 343 345 348 348 346 344 344 346 346 345 344 344 343 349 356 2 6 3 360 14 32 23 13 10 7 5 8 10 3 353 352 348 342 340 339 337 336 336 334 330 328 341 349 344 336 328 321 313 304 300 297 293 295 296 291 286 282 276 272 269 266 264 265 268 268 261 251 245 237 229 229 229 228 233 243
358 352 350 348 346 344 343 344 345 344 344 348 351 349 347 347 347 347 346 346 348 349 349 353 2 10 13 11 10 14 23 20 12 9 7 4 6 8 3 353 351 346 340 339 338 335 330 330 333 332 332 343 350 348 344 340 337 331 321 313 307 302 305 311 303 302 305 299 292 289 285 278 270 267 267 265 261 252 238 230 228 224 222 227 235
354 352 346 344 345 344 344 344 345 344 345 350 351 348 347 347 349 352 353 353 355 356 358 2 9 12 10 9 11 12 16 18 13 9 7 4 4 6 2 354 349 343 337 335 333 330 327 327 329 328 328 334 338 337 337 335 333 330 326 320 312 307 316 323 315 311 310 305 300 297 297 296 287 277 273 269 266 261 251 242 234 226 225 231 233
353 351 345 343 345 345 345 345 344 342 346 350 349 347 348 349 353 360 1 0 3 7 9 10 9 7 4 3 4 8 11 14 10 7 4 1 2 5 2 354 347 340 334 331 327 324 324 325 325 322 319 319 321 322 323 324 324 322 319 316 307 304 311 312 308 306 304 300 298 294 292 294 291 285 281 274 269 266 259 251 243 237 236 236 233
353 350 345 344 345 345 345 347 345 343 347 352 349 348 351 354 360 7 8 8 13 13 11 9 4 2 2 2 1 2 2 2 2 1 358 356 0 4 360 351 345 338 330 327 324 322 322 322 321 318 312 310 313 317 317 318 320 317 313 309 303 302 305 305 303 303 302 299 297 293 290 289 287 284 280 274 270 266 262 256 249 241 238 237 236
351 348 344 343 347 347 346 349 349 345 348 352 349 350 355 359 7 14 15 16 15 10 6 4 360 359 1 0 1 360 357 356 356 354 351 352 358 1 354 348 346 339 331 327 323 320 320 320 320 316 309 306 310 316 318 319 321 317 311 309 310 308 306 303 301 298 296 296 295 291 288 284 280 278 276 271 268 265 261 258 252 245 242 242 240
351 350 343 344 351 348 346 353 353 347 348 351 350 354 0 4 11 18 22 20 14 8 5 2 357 356 358 359 1 359 354 352 351 350 351 353 355 354 351 350 350 344 333 326 323 321 320 320 320 320 316 312 313 319 325 329 330 325 317 311 311 313 312 308 303 297 290 289 288 286 285 282 277 275 271 268 265 263 262 259 251 245 246 246 243
354 348 341 346 350 347 352 357 352 348 352 352 354 2 5 5 14 23 24 20 14 8 6 1 355 355 357 356 358 357 352 351 349 349 350 351 350 351 352 353 354 349 338 329 326 325 322 321 324 328 331 330 332 338 345 348 350 348 338 322 310 308 309 307 302 294 284 280 278 277 279 280 278 277 278 276 272 265 262 261 254 247 251 253 252
351 341 343 352 347 350 4 357 344 351 360 357 1 8 6 5 15 24 21 16 13 9 5 1 357 354 354 353 353 353 351 350 349 348 348 347 347 351 353 354 356 354 345 335 330 329 328 330 336 340 343 347 355 4 6 3 5 10 10 6 352 333 318 306 299 294 290 288 289 290 294 298 302 307 309 306 296 282 272 270 267 261 259 259 257
343 337 352 357 348 360 8 348 340 2 7 360 4 9 7 8 16 21 18 15 15 12 6 3 359 354 353 352 351 350 349 349 349 348 347 345 347 351 355 356 358 357 349 338 338 341 341 342 347 351 355 2 11 16 11 6 8 13 19 22 19 11 2 347 331 327 325 320 317 314 313 315 319 323 325 322 316 310 300 288 276 264 257 255 255
344 343 354 355 356 9 359 338 346 10 4 358 5 5 7 12 17 21 20 16 15 13 7 5 3 357 353 352 349 348 347 347 348 348 345 344 346 353 358 359 358 356 351 345 348 353 351 351 357 4 7 10 14 15 12 11 11 11 15 19 16 13 13 9 5 8 4 351 342 335 329 330 331 331 331 328 324 323 319 306 290 278 270 257 250
349 347 347 349 5 10 349 338 358 7 357 0 7 3 7 19 22 25 24 17 14 9 4 5 5 359 357 355 351 348 347 347 348 345 344 346 348 353 358 359 358 356 352 350 355 359 356 359 7 12 13 13 14 13 12 12 12 10 11 13 11 10 9 7 7 9 5 356 352 348 345 347 348 344 341 337 333 331 329 323 310 298 292 277 258
346 347 347 353 9 3 344 346 1 360 357 5 4 356 359 11 18 21 17 13 11 8 9 15 7 358 0 0 354 347 343 345 347 345 347 352 355 355 355 355 358 1 358 356 3 7 5 9 13 13 14 15 13 12 11 10 11 11 10 10 9 8 8 7 4 360 357 356 354 350 351 355 354 351 350 346 343 341 337 332 324 313 306 295 279
346 349 351 1 8 356 345 353 360 360 7 8 359 349 343 341 355 5 2 1 2 1 13 27 18 13 17 10 360 351 342 342 346 347 351 359 2 1 358 356 1 9 7 6 13 15 12 15 16 15 16 16 14 13 12 9 10 9 8 9 10 7 7 6 1 355 354 356 355 353 355 357 354 352 351 348 345 343 339 334 329 323 315 303 287
347 348 358 13 8 349 345 359 4 6 11 5 350 342 338 334 341 349 349 352 354 353 4 13 12 24 32 18 9 1 350 345 345 345 353 3 8 9 8 5 8 14 14 13 19 21 18 17 17 16 16 17 16 15 13 11 11 9 6 7 9 8 6 3 359 356 355 355 355 356 358 357 354 353 352 349 344 340 337 338 337 332 324 313 297
344 348 11 23 5 342 347 5 7 5 7 358 343 337 340 344 344 343 345 348 345 342 348 353 1 22 27 18 11 2 350 346 345 344 354 8 13 13 14 13 13 16 18 19 21 22 21 20 19 17 16 17 16 15 14 13 12 9 6 6 6 5 3 1 359 357 356 356 355 356 357 357 355 353 351 348 345 340 339 340 340 338 335 330 320
353 5 27 24 354 335 348 5 5 5 7 356 340 337 346 352 351 350 351 349 343 342 342 337 347 18 17 15 10 359 347 346 346 342 353 13 17 16 17 19 18 19 22 23 22 22 22 20 20 18 17 17 17 15 14 14 12 8 6 5 4 2 1 2 2 360 358 358 357 356 355 355 354 353 351 349 347 344 342 341 340 340 340 336 332
4 20 30 13 339 329 349 2 3 5 2 345 334 341 357 0 355 353 353 351 352 355 346 331 331 15 16 14 7 355 344 346 346 336 346 16 20 16 16 20 21 22 26 26 23 22 21 20 20 19 17 16 16 14 13 12 11 8 6 5 4 2 2 4 6 3 359 358 358 357 355 354 351 350 349 348 346 345 344 343 342 342 340 337 336
8 25 26 3 332 335 356 4 3 359 350 343 349 1 7 1 354 353 356 354 351 351 348 342 351 57 25 13 5 355 345 345 347 338 347 15 19 16 17 19 18 19 24 26 23 22 21 19 20 19 17 15 14 12 11 11 10 8 5 3 1 1 1 3 3 1 360 359 358 355 354 354 351 348 347 346 346 347 345 343 341 338 337 339 338
19 30 24 358 331 334 353 2 3 1 358 358 3 10 10 0 352 352 356 355 352 351 348 344 355 66 31 10 5 357 346 346 354 360 2 10 16 18 19 19 16 16 20 21 20 19 19 19 20 18 16 15 13 10 9 9 8 7 6 4 2 360 360 0 359 357 357 358 357 356 354 353 350 348 347 347 347 347 345 341 339 337 335 335 333
32 41 32 6 336 334 356 5 2 6 11 3 356 4 14 5 353 351 356 356 356 356 349 343 352 32 28 11 4 355 345 346 1 14 10 10 15 20 20 16 12 15 20 20 16 16 16 18 18 16 14 13 12 10 8 7 6 6 6 6 5 1 359 359 357 355 355 355 355 355 354 352 349 347 346 345 347 348 344 339 337 337 335 334 333
25 46 36 13 343 339 1 8 4 11 13 353 339 2 25 7 346 352 4 359 354 355 349 344 353 18 23 11 3 354 346 348 4 15 12 12 15 18 21 17 10 12 18 17 15 15 17 17 15 14 14 13 11 9 9 6 4 3 3 4 4 2 1 359 356 354 354 353 352 352 351 349 348 347 346 344 344 345 344 340 338 337 336 335 336
309 348 30 13 354 353 5 12 11 14 11 351 342 3 23 2 340 356 15 2 350 351 349 345 353 12 17 13 8 357 347 350 3 8 7 10 11 14 21 20 11 7 11 14 13 13 15 16 14 13 15 14 11 12 12 7 3 2 3 2 2 1 1 359 357 354 352 349 348 348 348 347 346 346 345 344 343 343 344 343 341 339 338 336 333
323 340 353 341 341 352 12 18 6 353 360 6 352 353 12 2 344 355 14 1 348 352 350 345 354 13 22 21 15 1 350 350 360 3 2 6 8 9 16 20 12 1 2 12 15 11 9 10 10 9 12 13 10 12 15 10 4 2 3 3 2 1 359 358 356 352 349 346 344 342 342 343 344 344 344 343 343 343 342 341 340 339 338 336 332
321 345 342 333 346 355 9 16 0 347 6 25 1 349 7 7 349 356 14 5 357 1 355 344 349 6 20 23 17 5 354 353 360 1 358 360 3 6 11 18 15 1 355 4 13 11 7 7 6 5 7 9 6 5 7 8 5 3 3 3 2 0 358 356 354 351 347 344 342 340 338 337 338 339 339 339 340 341 339 338 341 342 338 335 333
305 324 326 344 15 15 7 7 4 1 12 16 3 360 10 4 353 6 20 11 2 4 356 343 343 351 3 12 12 5 358 356 357 357 354 353 360 6 9 15 15 3 353 357 6 6 5 7 7 2 1 4 6 4 2 2 4 4 2 0 358 358 358 355 352 350 347 343 340 338 335 334 334 335 335 335 337 338 335 332 335 340 340 336 334
314 330 327 349 25 25 12 5 8 8 5 360 358 5 8 357 354 6 10 1 359 360 352 345 346 348 354 3 5 2 358 356 354 354 351 350 355 2 5 9 10 1 352 356 1 360 359 3 5 1 358 1 6 4 1 1 3 3 3 1 358 358 359 355 350 347 345 341 338 334 330 328 329 330 330 332 335 336 333 327 325 332 338 337 333
317 343 354 9 22 22 15 10 6 1 355 351 352 359 359 353 354 359 356 355 0 359 349 346 349 351 355 360 359 356 355 355 354 352 350 348 351 355 358 3 2 356 352 356 357 356 357 360 0 360 0 2 4 3 2 2 4 6 8 6 2 360 357 352 347 344 340 336 333 330 326 325 326 326 327 329 330 330 328 324 317 320 332 336 332
321 344 355 7 9 0 357 359 352 341 340 342 342 344 347 348 350 351 350 352 355 353 349 348 351 352 354 354 351 350 352 353 352 350 348 346 346 347 353 358 357 352 352 355 356 359 4 4 3 4 4 1 359 359 358 359 3 9 12 10 6 2 356 347 342 341 338 334 330 327 324 324 324 323 322 322 321 321 323 321 314 315 328 333 327
330 343 343 353 354 342 337 337 331 326 327 326 325 327 331 334 335 336 339 342 344 347 349 350 350 350 350 348 347 348 350 351 350 348 346 345 343 343 349 355 353 350 351 353 356 0 3 2 1 2 359 355 354 355 355 356 360 3 6 6 3 357 351 346 344 343 342 338 333 329 325 323 323 321 319 317 315 314 316 317 315 321 332 331 324
311 319 328 336 332 325 324 324 323 323 321 319 321 326 325 321 321 324 327 330 336 343 347 347 346 347 347 347 349 352 355 355 352 346 344 345 344 342 344 348 350 350 352 352 353 354 355 355 356 355 353 352 353 352 351 353 353 351 352 357 356 351 347 346 347 348 347 343 339 334 328 323 321 322 323 321 316 311 310 311 318 331 333 325 319
290 302 317 320 311 311 317 320 319 318 318 322 326 325 322 319 319 322 326 327 331 339 343 343 343 344 344 345 350 354 357 359 353 344 342 345 345 340 338 343 348 352 351 349 350 350 350 351 350 348 347 349 348 346 347 350 351 348 346 347 348 346 344 344 346 347 347 345 343 341 335 328 324 325 325 322 318 315 315 319 330 336 329 320 317
290 302 313 311 307 311 317 318 314 313 317 322 321 318 317 316 314 315 320 322 324 334 340 340 341 343 344 347 353 356 356 357 353 345 342 344 342 336 335 341 350 353 349 347 348 348 347 346 345 345 345 345 343 345 348 350 350 350 347 345 345 344 342 340 342 344 344 343 342 341 339 336 335 332 326 319 318 321 325 329 334 335 328 321 318
282 293 306 309 310 313 316 315 312 313 317 318 313 311 313 311 306 306 313 315 314 326 336 337 338 340 342 348 355 355 351 351 350 346 342 340 338 335 337 343 349 349 346 344 344 344 343 344 343 342 341 339 340 344 345 340 342 347 348 345 344 343 339 338 340 342 343 342 340 338 338 340 338 332 324 320 321 325 328 331 334 334 329 323 322
280 291 302 307 307 307 309 312 314 316 317 313 309 309 314 314 309 306 307 309 311 320 328 330 334 338 341 346 351 352 348 347 347 345 342 339 336 338 342 345 345 343 343 342 341 341 342 343 341 338 337 338 341 342 336 334 341 346 344 341 341 340 338 339 342 343 344 343 338 335 337 339 332 324 322 325 327 328 330 332 333 330 326 322 323